[[{"header":{"parameterUnit":"m.s-1","parameterCategory":1,"la1":30.2991,"la2":30.254,"lo1":-89.0895,"lo2":-89.0444,"dy":0.0017,"dx":0.0017,"nx":28,"ny":28,"refTime":"2023-10-01T03:00:00:Z","depth":0,"parameterNumber":2,"parameterNumberName":"U-component_of_WINDS"},"data":[0,0,0,0,0,0,0,0,0,0,0,0,0,0,0,0,0,0,0,0,0,0,0,0,0,0,0,0,0,0,0,0,0,0,0,0,0,0,0,0,0,0,0,0,0,0,0,0,0,0,0,0,0,0,0,0,0,0,-5.1341,-5.1341,0,-5.1338,-5.1337,-5.1337,-5.1227,-5.1224,-5.1221,-5.1218,-5.1217,-5.122,-5.1222,0,0,0,0,0,0,0,0,0,0,0,0,0,-5.1258,-5.126,-5.1341,-5.1341,-5.1341,-5.1338,-5.1337,-5.1337,-5.1227,-5.1224,-5.122,-5.1217,-5.1216,-5.1219,-5.1222,0,0,0,0,0,0,0,0,0,0,0,0,0,-5.1279,-5.1261,-5.1341,-5.1286,-5.1281,-5.1338,-5.1337,-5.1337,-5.1228,-5.1224,-5.122,-5.1216,-5.1215,-5.1219,-5.1223,-5.1333,0,0,-5.1235,-5.1237,0,0,0,0,0,0,0,0,-5.1277,-5.1282,-5.1294,-5.129,-5.1284,-5.1278,-5.1307,-5.1336,-5.1229,-5.1248,-5.1218,-5.1213,-5.1241,-5.1243,-5.1251,-5.1333,-5.1333,-5.1235,-5.1238,-5.1239,-5.124,0,0,0,0,0,0,0,-5.1276,-5.1281,-5.134,-5.1295,-5.1289,-5.1263,-5.1261,-5.1312,-5.1269,-5.1246,-5.1238,-5.1239,-5.1237,-5.1248,-5.125,-5.1333,-5.1235,-5.1239,-5.1241,-5.1243,-5.151,-5.1514,0,0,0,0,0,0,-5.1282,-5.1281,-5.134,-5.134,-5.127,-5.1268,-5.1266,-5.1285,-5.1268,-5.1261,-5.1243,-5.1234,-5.1243,-5.1246,-5.125,-5.1381,-5.1239,-5.1243,-5.1245,-5.1505,-5.1511,-5.1516,0,0,0,0,0,0,-5.1281,-5.1288,-5.134,-5.1308,-5.1313,-5.1274,-5.1296,-5.1287,-5.1297,-5.1265,-5.1257,-5.1261,-5.124,-5.1244,-5.1314,-5.138,-5.1245,-5.1248,-5.1499,-5.1507,-5.1513,-5.1643,0,0,0,0,0,0,-5.1279,-5.1288,-5.1329,-5.131,-5.1315,-5.1403,-5.13,-5.129,-5.1304,-5.1292,-5.128,-5.1274,-5.1237,-5.1309,-5.1318,-5.1383,-5.1251,-5.1493,-5.1503,-5.1511,-5.1633,-5.1654,-5.1672,0,0,0,0,0,-5.1276,-5.1365,-5.1331,-5.1339,-5.1364,-5.1407,-5.141,-5.1365,-5.1309,-5.1351,-5.1331,-5.1275,-5.1371,-5.1317,-5.1326,-5.1393,-5.1489,-5.15,-5.151,-5.1624,-5.165,-5.1671,0,0,0,0,0,0,-5.1392,-5.1361,-5.1324,-5.1409,-5.1412,-5.1388,-5.1439,-5.1392,-5.1412,-5.14,-5.1343,-5.1342,-5.1422,-5.1414,-5.1354,-5.1501,-5.142,-5.1433,-5.1504,-5.1528,-5.1547,-5.1548,-5.1255,0,0,0,0,0,-5.1428,-5.1464,-5.1435,-5.1513,-5.1517,-5.1478,-5.1495,-5.146,-5.1461,-5.1462,-5.1447,-5.1451,-5.1482,-5.1504,-5.1531,-5.1631,-5.1629,-5.1682,-5.1701,-5.1717,-5.173,-5.1787,-5.1811,-5.1551,-5.1551,-5.1551,0,0,-5.1501,-5.1489,-5.1515,-5.1537,-5.1535,-5.1576,-5.148,-5.1526,-5.1557,-5.1469,-5.1535,-5.1524,-5.1525,-5.1612,-5.1649,-5.1608,-5.1802,-5.1731,-5.1744,-5.1748,-5.18,-5.1825,-5.1847,-5.1558,-5.1557,-5.1556,0,0,-5.1657,-5.165,-5.1716,-5.1717,-5.1716,-5.169,-5.1706,-5.1691,-5.1681,-5.1746,-5.1682,-5.1718,-5.1772,-5.1777,-5.1786,-5.1948,-5.1899,-5.1959,-5.2061,-5.2117,-5.2138,-5.2156,-5.2217,-5.2239,-5.1971,-5.1971,-5.1971,0,-5.175,-5.1808,-5.1756,-5.1809,-5.1822,-5.1744,-5.1812,-5.1815,-5.1823,-5.1835,-5.1788,-5.1857,-5.1852,-5.1941,-5.1981,-5.199,-5.2009,-5.196,-5.2138,-5.2156,-5.2172,-5.223,-5.2253,-5.1979,-5.1978,-5.1977,-5.1976,0,-5.1923,-5.1965,-5.2019,-5.2029,-5.2048,-5.2108,-5.2068,-5.2093,-5.2057,-5.2037,-5.2107,-5.2098,-5.2124,-5.2142,-5.2106,-5.2227,-5.2202,-5.2148,-5.2066,-5.2205,-5.2259,-5.2281,-5.1989,-5.1987,-5.1985,-5.1983,0,0,-5.2152,-5.2135,-5.2156,-5.2162,-5.2156,-5.2188,-5.2246,-5.2271,-5.2296,-5.2304,-5.2354,-5.2403,-5.2354,-5.2365,-5.233,-5.2379,-5.2513,-5.2319,-5.2318,-5.2358,-5.265,-5.2693,-5.2719,-5.2479,-5.2483,-5.2486,-5.2651,0,-5.2305,-5.2403,-5.236,-5.2462,-5.2503,-5.2431,-5.2482,-5.2486,-5.2469,-5.2502,-5.2484,-5.2521,-5.2451,-5.2459,-5.2503,-5.2487,-5.2571,-5.2474,-5.2528,-5.253,-5.2533,-5.2747,-5.2792,-5.2948,-5.2671,-5.2675,-5.2677,0,-5.2497,-5.2515,-5.2623,-5.2613,-5.2628,-5.2675,-5.2697,-5.2728,-5.2732,-5.2717,-5.2731,-5.2686,-5.2745,-5.2662,-5.2745,-5.268,-5.2699,-5.2695,-5.27,-5.2705,-5.2614,-5.2761,-5.2996,-5.3021,-5.2709,-5.2707,-5.2704,0,-5.2658,-5.2709,-5.278,-5.2787,-5.2777,-5.2812,-5.281,-5.2809,-5.2828,-5.2847,-5.286,-5.2886,-5.2901,-5.2924,-5.2888,-5.283,-5.2978,-5.289,-5.2969,-5.2971,-5.3005,-5.3004,-5.3249,-5.3013,-5.3013,-5.3012,-5.3012,0,-5.2836,-5.2905,-5.2853,-5.2897,-5.2974,-5.2925,-5.3003,-5.2993,-5.2994,-5.3037,-5.2975,-5.3018,-5.2967,-5.3005,-5.2977,-5.3053,-5.3059,-5.3051,-5.3043,-5.3058,-5.306,-5.3072,-5.3061,-5.3019,-5.3017,-5.3016,-5.3015,0,-5.3029,-5.2996,-5.307,-5.3055,-5.3053,-5.3111,-5.3099,-5.3141,-5.3121,-5.3177,-5.3187,-5.3156,-5.3198,-5.3165,-5.3205,-5.3187,-5.3288,-5.3263,-5.3287,-5.3281,-5.3364,-5.3358,-5.3628,-5.3662,-5.3401,-5.3404,-5.3406,0,-5.3145,-5.3197,-5.3189,-5.3213,-5.3215,-5.3255,-5.3275,-5.3229,-5.3253,-5.3263,-5.3305,-5.3342,-5.3369,-5.344,-5.3423,-5.3455,-5.3433,-5.3525,-5.3437,-5.3452,-5.3439,-5.3437,-5.3444,-5.3544,-5.3547,-5.3549,-5.3551,0,-5.3358,-5.334,-5.337,-5.3397,-5.3423,-5.3441,-5.3455,-5.3479,-5.3433,-5.3463,-5.3505,-5.3527,-5.357,-5.3609,-5.3635,-5.3634,-5.3588,-5.3579,-5.36,-5.3617,-5.363,-5.3628,-5.3339,-5.3574,-5.3571,-5.357,-5.3569,-5.3568,-5.3518,-5.3563,-5.3565,-5.3602,-5.3608,-5.3624,-5.3663,-5.3649,-5.3683,-5.3715,-5.3686,-5.3739,-5.3745,-5.3775,-5.3781,-5.3823,-5.3785,-5.3814,-5.3822,-5.3831,-5.3844,-5.3621,-5.3827,-5.3827,-5.3826,-5.3825,-5.3825,0,-5.3731,-5.3729,-5.3764,-5.3786,-5.3817,-5.3768,-5.3782,-5.3811,-5.3858,-5.3867,-5.3896,-5.3947,-5.3985,-5.3972,-5.4006,-5.4043,-5.4023,-5.4054,-5.4052,-5.4054,-5.3874,-5.3855,-5.407,-5.407,-5.407,-5.407,-5.407,-5.407,-5.3845,-5.3919,-5.3902,-5.398,-5.3978,-5.4028,-5.4041,-5.4056,-5.4064,-5.4124,-5.4155,-5.4146,-5.4147,-5.4182,-5.4216,-5.4211,-5.4229,-5.4269,-5.4257,-5.409,-5.4066,-5.4043,-5.4024,-5.4272,-5.4273,-5.4434,-5.4435,-5.4436]},{"header":{"parameterUnit":"m.s-1","parameterCategory":1,"la1":30.2991,"la2":30.254,"lo1":-89.0895,"lo2":-89.0444,"dy":0.0017,"dx":0.0017,"nx":28,"ny":28,"refTime":"2023-10-01T03:00:00:Z","depth":0,"parameterNumber":3,"parameterNumberName":"V-component_of_WINDS"},"data":[0,0,0,0,0,0,0,0,0,0,0,0,0,0,0,0,0,0,0,0,0,0,0,0,0,0,0,0,0,0,0,0,0,0,0,0,0,0,0,0,0,0,0,0,0,0,0,0,0,0,0,0,0,0,0,0,0,0,0.76,0.76,0,0.7576,0.7576,0.7576,0.7568,0.7569,0.7569,0.7569,0.7541,0.754,0.7539,0,0,0,0,0,0,0,0,0,0,0,0,0,0.7636,0.7636,0.76,0.76,0.76,0.7577,0.7576,0.7576,0.7568,0.7569,0.7569,0.7569,0.7541,0.754,0.7539,0,0,0,0,0,0,0,0,0,0,0,0,0,0.7617,0.7636,0.76,0.7593,0.7593,0.7577,0.7576,0.7576,0.7568,0.7569,0.7569,0.7569,0.7541,0.754,0.7539,0.7527,0,0,0.7535,0.7534,0,0,0,0,0,0,0,0,0.7618,0.7616,0.7595,0.7594,0.7593,0.7576,0.7579,0.7559,0.7568,0.7577,0.7569,0.7569,0.7552,0.755,0.7545,0.7526,0.7525,0.7535,0.7534,0.7534,0.7533,0,0,0,0,0,0,0,0.762,0.7617,0.7591,0.7594,0.7593,0.759,0.7588,0.7575,0.7564,0.7577,0.7576,0.7573,0.7552,0.7546,0.7544,0.7524,0.7535,0.7534,0.7533,0.7532,0.7494,0.7494,0,0,0,0,0,0,0.7623,0.7618,0.7592,0.759,0.7607,0.759,0.7587,0.7581,0.7564,0.7562,0.7573,0.7573,0.7548,0.7546,0.7543,0.7528,0.7534,0.7532,0.7532,0.7494,0.7494,0.7494,0,0,0,0,0,0,0.7624,0.7621,0.7593,0.7604,0.76,0.7589,0.7582,0.758,0.7575,0.7562,0.7559,0.757,0.7548,0.7545,0.7531,0.7527,0.7532,0.7531,0.7495,0.7494,0.7494,0.7498,0,0,0,0,0,0,0.7625,0.7621,0.7617,0.7604,0.76,0.7582,0.7582,0.758,0.7573,0.7573,0.7558,0.7556,0.7548,0.7533,0.753,0.7525,0.753,0.7495,0.7494,0.7494,0.7498,0.7498,0.7497,0,0,0,0,0,0.7626,0.7619,0.7617,0.7614,0.7595,0.7582,0.7579,0.7572,0.7573,0.7569,0.756,0.7556,0.7528,0.7532,0.7528,0.7523,0.7495,0.7494,0.7494,0.7498,0.7498,0.7497,0,0,0,0,0,0,0.763,0.7617,0.7615,0.7603,0.7594,0.7581,0.7575,0.7572,0.7561,0.7561,0.7552,0.7548,0.7535,0.7528,0.7532,0.7511,0.7511,0.751,0.7516,0.7515,0.7515,0.7517,0.7529,0,0,0,0,0,0.763,0.7622,0.761,0.7601,0.7596,0.7587,0.7581,0.7576,0.7565,0.7561,0.7552,0.7541,0.7529,0.7522,0.7511,0.7497,0.7493,0.7492,0.7491,0.7491,0.749,0.7481,0.748,0.7492,0.7492,0.7492,0,0,0.7629,0.7621,0.7616,0.7602,0.7594,0.7584,0.7583,0.7573,0.7566,0.7559,0.7546,0.7539,0.7526,0.7512,0.7505,0.7505,0.7486,0.749,0.749,0.7489,0.7481,0.7479,0.7478,0.7491,0.7491,0.7492,0,0,0.7623,0.7616,0.7608,0.76,0.7589,0.7582,0.758,0.7568,0.7563,0.755,0.7544,0.7535,0.7516,0.7506,0.7499,0.7489,0.7485,0.7486,0.7484,0.7476,0.7475,0.7474,0.747,0.7468,0.7485,0.7485,0.7485,0,0.7623,0.761,0.7603,0.7594,0.7587,0.7582,0.7572,0.7565,0.755,0.7545,0.7546,0.7522,0.7513,0.7496,0.7494,0.7489,0.7485,0.7487,0.7476,0.7475,0.7474,0.7469,0.7468,0.7485,0.7485,0.7485,0.7485,0,0.761,0.7601,0.7595,0.7582,0.7575,0.7565,0.7556,0.755,0.7545,0.7539,0.7525,0.7514,0.75,0.7496,0.7491,0.7479,0.7479,0.7478,0.7478,0.7473,0.7469,0.7467,0.7485,0.7485,0.7485,0.7485,0,0,0.7605,0.7589,0.7587,0.7581,0.7568,0.756,0.755,0.7538,0.7532,0.7522,0.7512,0.7496,0.7495,0.7487,0.7481,0.7474,0.7466,0.7474,0.7473,0.7472,0.7451,0.7451,0.745,0.7464,0.7463,0.7463,0.7452,0,0.7596,0.758,0.7573,0.7559,0.755,0.7545,0.7536,0.7526,0.7519,0.751,0.7502,0.7491,0.749,0.7485,0.7478,0.7469,0.7462,0.747,0.7454,0.7453,0.7456,0.7448,0.7448,0.7438,0.745,0.745,0.745,0,0.7584,0.7575,0.756,0.7548,0.7544,0.7536,0.7524,0.7516,0.7504,0.75,0.7491,0.7486,0.7474,0.7476,0.7458,0.7464,0.7457,0.7451,0.7451,0.7448,0.7451,0.7444,0.7435,0.7433,0.7447,0.7447,0.7447,0,0.7582,0.7565,0.7554,0.7549,0.7535,0.753,0.7523,0.7512,0.7505,0.7494,0.749,0.7477,0.747,0.746,0.7451,0.7454,0.7434,0.7436,0.7429,0.743,0.7425,0.7425,0.7413,0.7422,0.7422,0.7422,0.7422,0,0.7572,0.7563,0.7553,0.7546,0.7535,0.7528,0.7517,0.751,0.75,0.7491,0.7485,0.7476,0.7466,0.7455,0.7448,0.7434,0.7431,0.7426,0.7425,0.7427,0.7427,0.7421,0.7422,0.7421,0.7422,0.7422,0.7422,0,0.7567,0.756,0.7547,0.7535,0.7532,0.7525,0.7514,0.7506,0.7499,0.7488,0.7484,0.7473,0.746,0.7451,0.7434,0.7429,0.7414,0.7413,0.7419,0.7417,0.7411,0.7412,0.7395,0.7392,0.7403,0.7403,0.7403,0,0.7561,0.7554,0.7542,0.7536,0.753,0.752,0.7513,0.7505,0.7498,0.7485,0.7478,0.7466,0.7455,0.7434,0.7424,0.7411,0.7408,0.7403,0.7406,0.7408,0.7407,0.7408,0.7406,0.7403,0.7403,0.7403,0.7402,0,0.7552,0.7549,0.7539,0.7529,0.7521,0.7512,0.7502,0.7497,0.7488,0.748,0.7467,0.7459,0.7442,0.7429,0.7415,0.7407,0.7403,0.7402,0.7399,0.7401,0.7404,0.7402,0.7417,0.7402,0.7402,0.7402,0.7402,0.7402,0.7546,0.7539,0.7529,0.7519,0.7511,0.7503,0.7495,0.7487,0.7477,0.7464,0.746,0.7446,0.7435,0.7415,0.7407,0.7396,0.7396,0.7393,0.7392,0.7391,0.7391,0.7407,0.7394,0.7394,0.7394,0.7394,0.7394,0,0.7535,0.7529,0.7519,0.7507,0.7498,0.7497,0.7486,0.7479,0.7468,0.7458,0.7447,0.7433,0.742,0.7409,0.7395,0.7388,0.7386,0.7385,0.7385,0.7383,0.7392,0.7395,0.7387,0.7387,0.7387,0.7387,0.7387,0.7387,0.7529,0.7517,0.7513,0.7497,0.749,0.7478,0.7472,0.7464,0.7456,0.744,0.743,0.7423,0.7412,0.7397,0.7385,0.7382,0.7377,0.7376,0.7373,0.7381,0.7382,0.7383,0.7386,0.7376,0.7376,0.7364,0.7364,0.7364]}]]